Station Historical Data
Daily Summary for August 26, 2017 Units:  English    Metric   Both
« Previous Day
Next Day »
Daily Weekly Monthly Yearly Custom
  High: Low: Average:
Temperature: 85.6 °F 68.7 °F 76.6 °F
Dew Point: 70.9 °F 64.7 °F 68.2 °F
Humidity: 88% 60% 76%
Wind Speed: 1.0mph 0.0mph 0mph
Wind Gust: 3.0mph - -
Wind- - WSW
Pressure: 30.14 in 30.05 in -
Precipitation: 0.00 in    
Historical Graphs
 
 
Tabular Data for August 26, 2017
Time Temperature Dew Point Pressure Wind Wind Speed Wind Gust Humidity Rainfall Rate (Hourly) solar Conditions
00:00 73.0 °F 67.5 °F 30.10 in Calm     83% 0.00 in WeatherDisplay:10.37 W/m2 BKN
00:05 72.9 °F 67.4 °F 30.10 in Calm     83% 0.00 in WeatherDisplay:10.37 W/m2 BKN
00:10 72.8 °F 67.3 °F 30.10 in Calm     83% 0.00 in WeatherDisplay:10.37 W/m2 BKN
00:15 72.8 °F 67.3 °F 30.10 in Calm     83% 0.00 in WeatherDisplay:10.37 W/m2 BKN
00:20 72.7 °F 67.2 °F 30.10 in Calm     83% 0.00 in WeatherDisplay:10.37 W/m2 CLR
00:25 72.7 °F 67.2 °F 30.10 in Calm     83% 0.00 in WeatherDisplay:10.37 W/m2 CLR
00:30 72.7 °F 67.2 °F 30.09 in Calm     83% 0.00 in WeatherDisplay:10.37 W/m2 CLR
00:35 72.6 °F 67.5 °F 30.10 in Calm     84% 0.00 in WeatherDisplay:10.37 W/m2 CLR
00:40 72.6 °F 67.5 °F 30.09 in Calm     84% 0.00 in WeatherDisplay:10.37 W/m2 CLR
00:50 72.5 °F 67.0 °F 30.09 in Calm     83% 0.00 in WeatherDisplay:10.37 W/m2 CLR
00:55 72.5 °F 67.0 °F 30.10 in Calm     83% 0.00 in WeatherDisplay:10.37 W/m2 CLR
01:00 72.4 °F 67.0 °F 30.10 in Calm     83% 0.00 in WeatherDisplay:10.37 W/m2 CLR
01:05 72.4 °F 66.9 °F 30.10 in Calm     83% 0.00 in WeatherDisplay:10.37 W/m2 CLR
01:15 72.4 °F 66.9 °F 30.10 in Calm     83% 0.00 in WeatherDisplay:10.37 W/m2 CLR
01:20 72.3 °F 66.8 °F 30.10 in Calm     83% 0.00 in WeatherDisplay:10.37 W/m2 CLR
01:25 72.2 °F 66.8 °F 30.09 in Calm     83% 0.00 in WeatherDisplay:10.37 W/m2 CLR
01:30 72.1 °F 66.7 °F 30.10 in Calm     83% 0.00 in WeatherDisplay:10.37 W/m2 CLR
01:40 71.9 °F 66.8 °F 30.10 in Calm     84% 0.00 in WeatherDisplay:10.37 W/m2 CLR
01:45 71.8 °F 66.7 °F 30.10 in Calm     84% 0.00 in WeatherDisplay:10.37 W/m2 CLR
01:50 71.7 °F 66.6 °F 30.10 in Calm   1.0 mph 84% 0.00 in WeatherDisplay:10.37 W/m2 CLR
01:55 71.7 °F 66.6 °F 30.10 in Calm     84% 0.00 in WeatherDisplay:10.37 W/m2 CLR
02:00 71.7 °F 66.6 °F 30.10 in Calm     84% 0.00 in WeatherDisplay:10.37 W/m2 CLR
02:10 71.9 °F 66.5 °F 30.10 in Calm     83% 0.00 in WeatherDisplay:10.37 W/m2 CLR
02:15 72.0 °F 66.6 °F 30.10 in Calm     83% 0.00 in WeatherDisplay:10.37 W/m2 CLR
02:20 72.2 °F 66.4 °F 30.09 in Calm   1.0 mph 82% 0.00 in WeatherDisplay:10.37 W/m2 CLR
02:30 72.6 °F 66.4 °F 30.09 in Calm   1.0 mph 81% 0.00 in WeatherDisplay:10.37 W/m2 CLR
02:35 72.7 °F 66.5 °F 30.09 in Calm   1.0 mph 81% 0.00 in WeatherDisplay:10.37 W/m2 CLR
02:40 72.7 °F 66.5 °F 30.09 in Calm   1.0 mph 81% 0.00 in WeatherDisplay:10.37 W/m2 CLR
02:45 72.7 °F 66.5 °F 30.09 in Calm     81% 0.00 in WeatherDisplay:10.37 W/m2 CLR
02:50 72.6 °F 66.4 °F 30.09 in Calm   1.0 mph 81% 0.00 in WeatherDisplay:10.37 W/m2 BKN
02:55 72.6 °F 66.4 °F 30.09 in Calm   1.0 mph 81% 0.00 in WeatherDisplay:10.37 W/m2 BKN
03:00 72.5 °F 66.3 °F 30.09 in Calm   1.0 mph 81% 0.00 in WeatherDisplay:10.37 W/m2 BKN
03:10 72.3 °F 66.5 °F 30.09 in Calm     82% 0.00 in WeatherDisplay:10.37 W/m2 BKN
03:20 72.2 °F 66.4 °F 30.09 in Calm     82% 0.00 in WeatherDisplay:10.37 W/m2 FEW
03:25 72.1 °F 66.3 °F 30.09 in Calm     82% 0.00 in WeatherDisplay:10.37 W/m2 FEW
03:30 72.1 °F 66.3 °F 30.09 in Calm     82% 0.00 in WeatherDisplay:10.37 W/m2 BKN
03:40 72.0 °F 66.5 °F 30.09 in Calm     83% 0.00 in WeatherDisplay:10.37 W/m2 BKN
03:45 71.9 °F 66.5 °F 30.10 in Calm     83% 0.00 in WeatherDisplay:10.37 W/m2 BKN
03:50 71.8 °F 66.4 °F 30.10 in Calm     83% 0.00 in WeatherDisplay:10.37 W/m2 BKN
04:00 71.6 °F 66.2 °F 30.10 in Calm     83% 0.00 in WeatherDisplay:10.37 W/m2 BKN
04:05 71.6 °F 66.2 °F 30.10 in Calm     83% 0.00 in WeatherDisplay:10.37 W/m2 FEW
04:10 71.6 °F 66.5 °F 30.10 in Calm     84% 0.00 in WeatherDisplay:10.37 W/m2 FEW
04:15 71.5 °F 66.4 °F 30.10 in Calm     84% 0.00 in WeatherDisplay:10.37 W/m2 FEW
04:20 71.5 °F 66.4 °F 30.10 in Calm     84% 0.00 in WeatherDisplay:10.37 W/m2 CLR
04:25 71.5 °F 66.4 °F 30.10 in Calm     84% 0.00 in WeatherDisplay:10.37 W/m2 CLR
04:30 71.4 °F 66.3 °F 30.10 in Calm     84% 0.00 in WeatherDisplay:10.37 W/m2 CLR
04:40 71.2 °F 66.1 °F 30.10 in Calm     84% 0.00 in WeatherDisplay:10.37 W/m2 CLR
04:50 71.1 °F 66.0 °F 30.10 in Calm     84% 0.00 in WeatherDisplay:10.37 W/m2 CLR
04:55 71.1 °F 66.0 °F 30.10 in Calm     84% 0.00 in WeatherDisplay:10.37 W/m2 CLR
05:00 71.0 °F 66.3 °F 30.10 in Calm     85% 0.00 in WeatherDisplay:10.37 W/m2 CLR
05:10 70.8 °F 66.1 °F 30.10 in Calm     85% 0.00 in WeatherDisplay:10.37 W/m2 CLR
05:15 70.6 °F 65.9 °F 30.10 in Calm     85% 0.00 in WeatherDisplay:10.37 W/m2 CLR
05:25 70.4 °F 65.7 °F 30.11 in Calm     85% 0.00 in WeatherDisplay:10.37 W/m2 FEW
05:30 70.3 °F 65.9 °F 30.11 in Calm     86% 0.00 in WeatherDisplay:10.37 W/m2 FEW
05:35 70.2 °F 65.8 °F 30.11 in Calm     86% 0.00 in WeatherDisplay:10.37 W/m2 FEW
05:40 70.1 °F 65.7 °F 30.11 in Calm     86% 0.00 in WeatherDisplay:10.37 W/m2 FEW
05:45 70.0 °F 65.6 °F 30.11 in Calm     86% 0.00 in WeatherDisplay:10.37 W/m2 FEW
05:50 69.9 °F 65.5 °F 30.11 in Calm     86% 0.00 in WeatherDisplay:10.37 W/m2 FEW
05:55 69.9 °F 65.5 °F 30.11 in Calm     86% 0.00 in WeatherDisplay:10.37 W/m2 FEW
06:00 69.8 °F 65.4 °F 30.11 in Calm     86% 0.00 in WeatherDisplay:10.37 W/m2 FEW
06:10 69.6 °F 65.2 °F 30.11 in Calm     86% 0.00 in WeatherDisplay:10.37 W/m2 FEW
06:15 69.5 °F 65.5 °F 30.11 in Calm     87% 0.00 in WeatherDisplay:10.37 W/m2 FEW
06:20 69.4 °F 65.4 °F 30.11 in Calm     87% 0.00 in WeatherDisplay:10.37 W/m2 CLR
06:30 69.2 °F 65.2 °F 30.11 in Calm     87% 0.00 in WeatherDisplay:10.37 W/m2 CLR
06:40 69.1 °F 65.1 °F 30.11 in Calm     87% 0.00 in WeatherDisplay:10.37 W/m2 CLR
06:45 69.1 °F 65.0 °F 30.11 in Calm     87% 0.00 in WeatherDisplay:10.37 W/m2 CLR
06:50 69.0 °F 65.0 °F 30.11 in Calm     87% 0.00 in WeatherDisplay:10.37 W/m2 CLR
06:55 68.9 °F 64.9 °F 30.11 in Calm     87% 0.00 in WeatherDisplay:10.37 W/m2 CLR
07:00 68.8 °F 64.8 °F 30.11 in Calm     87% 0.00 in WeatherDisplay:10.37 W/m2 CLR
07:05 68.8 °F 64.8 °F 30.11 in Calm     87% 0.00 in WeatherDisplay:10.37 W/m2 CLR
07:10 68.8 °F 64.8 °F 30.11 in Calm     87% 0.00 in WeatherDisplay:10.37 W/m2 CLR
07:15 68.7 °F 64.7 °F 30.11 in Calm     87% 0.00 in WeatherDisplay:10.37 W/m2 CLR
07:20 68.7 °F 65.0 °F 30.12 in Calm     88% 0.00 in WeatherDisplay:10.37 W/m2 BKN
07:25 68.7 °F 65.0 °F 30.11 in Calm     88% 0.00 in WeatherDisplay:10.37 W/m2 BKN
07:30 68.7 °F 65.0 °F 30.12 in Calm     88% 0.00 in WeatherDisplay:10.37 W/m2 BKN
07:35 68.8 °F 65.1 °F 30.12 in Calm     88% 0.00 in WeatherDisplay:10.37 W/m2 BKN
07:40 68.9 °F 65.2 °F 30.12 in Calm     88% 0.00 in WeatherDisplay:10.37 W/m2 BKN
07:45 69.0 °F 65.3 °F 30.12 in Calm     88% 0.00 in WeatherDisplay:10.37 W/m2 BKN
07:50 69.2 °F 65.5 °F 30.12 in Calm     88% 0.00 in WeatherDisplay:10.37 W/m2 BKN
07:55 69.4 °F 65.7 °F 30.12 in Calm     88% 0.00 in WeatherDisplay:10.37 W/m2 BKN
08:00 69.6 °F 65.9 °F 30.12 in Calm     88% 0.00 in WeatherDisplay:10.37 W/m2 BKN
08:10 70.3 °F 66.2 °F 30.12 in Calm     87% 0.00 in WeatherDisplay:10.37 W/m2 BKN
08:15 70.5 °F 66.1 °F 30.12 in Calm     86% 0.00 in WeatherDisplay:10.37 W/m2 BKN
08:20 70.9 °F 66.5 °F 30.12 in Calm     86% 0.00 in WeatherDisplay:10.37 W/m2 BKN
08:25 71.2 °F 66.8 °F 30.12 in Calm     86% 0.00 in WeatherDisplay:10.37 W/m2 BKN
08:30 71.6 °F 66.8 °F 30.12 in Calm     85% 0.00 in WeatherDisplay:10.37 W/m2 BKN
08:40 72.1 °F 67.3 °F 30.12 in Calm     85% 0.00 in WeatherDisplay:10.37 W/m2 BKN
08:45 72.4 °F 67.3 °F 30.12 in Calm     84% 0.00 in WeatherDisplay:10.37 W/m2 BKN
08:50 72.7 °F 67.6 °F 30.12 in Calm     84% 0.00 in WeatherDisplay:10.37 W/m2 BKN
08:55 72.9 °F 67.8 °F 30.13 in Calm     84% 0.00 in WeatherDisplay:10.37 W/m2 BKN
09:00 73.3 °F 68.1 °F 30.13 in Calm     84% 0.00 in WeatherDisplay:10.37 W/m2 BKN
09:10 73.5 °F 68.0 °F 30.13 in Calm     83% 0.00 in WeatherDisplay:10.37 W/m2 BKN
09:20 73.9 °F 68.4 °F 30.13 in Calm     83% 0.00 in WeatherDisplay:10.37 W/m2 BKN
09:30 74.6 °F 68.7 °F 30.13 in Calm     82% 0.00 in WeatherDisplay:10.37 W/m2 BKN
09:40 75.3 °F 69.5 °F 30.12 in Calm     82% 0.00 in WeatherDisplay:10.37 W/m2 BKN
09:45 75.8 °F 69.6 °F 30.13 in Calm     81% 0.00 in WeatherDisplay:10.37 W/m2 BKN
09:50 75.9 °F 68.9 °F 30.13 in WNW 1.0 mph 1.0 mph 79% 0.00 in WeatherDisplay:10.37 W/m2 BKN
09:55 75.9 °F 68.9 °F 30.13 in Calm   1.0 mph 79% 0.00 in WeatherDisplay:10.37 W/m2 BKN
10:00 76.1 °F 68.7 °F 30.13 in Calm   1.0 mph 78% 0.00 in WeatherDisplay:10.37 W/m2 BKN
10:05 76.4 °F 69.4 °F 30.13 in Calm   1.0 mph 79% 0.00 in WeatherDisplay:10.37 W/m2 BKN
10:10 76.7 °F 69.3 °F 30.13 in Calm   2.0 mph 78% 0.00 in WeatherDisplay:10.37 W/m2 BKN
10:15 76.8 °F 69.0 °F 30.13 in Calm   1.0 mph 77% 0.00 in WeatherDisplay:10.37 W/m2 BKN
10:20 76.8 °F 69.4 °F 30.13 in Calm   1.0 mph 78% 0.00 in WeatherDisplay:10.37 W/m2 BKN
10:25 76.9 °F 69.1 °F 30.14 in Calm   1.0 mph 77% 0.00 in WeatherDisplay:10.37 W/m2 BKN
10:30 76.9 °F 69.1 °F 30.13 in Calm   1.0 mph 77% 0.00 in WeatherDisplay:10.37 W/m2 BKN
10:40 77.2 °F 69.0 °F 30.13 in Calm   1.0 mph 76% 0.00 in WeatherDisplay:10.37 W/m2 BKN
10:45 77.2 °F 69.4 °F 30.13 in Calm     77% 0.00 in WeatherDisplay:10.37 W/m2 BKN
10:50 77.4 °F 69.6 °F 30.13 in Calm     77% 0.00 in WeatherDisplay:10.37 W/m2 BKN
10:55 77.6 °F 69.8 °F 30.13 in Calm     77% 0.00 in WeatherDisplay:10.37 W/m2 BKN
11:00 77.9 °F 69.7 °F 30.13 in Calm   1.0 mph 76% 0.00 in WeatherDisplay:10.37 W/m2 BKN
11:05 78.4 °F 70.6 °F 30.13 in SE 1.0 mph 1.0 mph 77% 0.00 in WeatherDisplay:10.37 W/m2 BKN
11:10 79.0 °F 70.4 °F 30.13 in Calm   1.0 mph 75% 0.00 in WeatherDisplay:10.37 W/m2 BKN
11:15 79.1 °F 70.1 °F 30.13 in East 1.0 mph 2.0 mph 74% 0.00 in WeatherDisplay:10.37 W/m2 BKN
11:20 78.8 °F 69.4 °F 30.13 in Calm   1.0 mph 73% 0.00 in WeatherDisplay:10.37 W/m2 BKN
11:25 78.5 °F 69.5 °F 30.12 in Calm   2.0 mph 74% 0.00 in WeatherDisplay:10.37 W/m2 BKN
11:30 78.5 °F 69.5 °F 30.12 in Calm   2.0 mph 74% 0.00 in WeatherDisplay:10.37 W/m2 BKN
11:40 79.3 °F 69.9 °F 30.12 in Calm   2.0 mph 73% 0.00 in WeatherDisplay:10.37 W/m2 BKN
11:45 79.8 °F 69.9 °F 30.12 in Calm   1.0 mph 72% 0.00 in WeatherDisplay:10.37 W/m2 BKN
11:50 80.1 °F 69.8 °F 30.12 in Calm   2.0 mph 71% 0.00 in WeatherDisplay:10.37 W/m2 BKN
11:55 80.4 °F 70.1 °F 30.12 in Calm   2.0 mph 71% 0.00 in WeatherDisplay:10.37 W/m2 BKN
12:00 80.0 °F 69.7 °F 30.12 in Calm   1.0 mph 71% 0.00 in WeatherDisplay:10.37 W/m2 BKN
12:10 80.7 °F 70.0 °F 30.12 in Calm   2.0 mph 70% 0.00 in WeatherDisplay:10.37 W/m2 BKN
12:15 80.7 °F 70.0 °F 30.12 in Calm   1.0 mph 70% 0.00 in WeatherDisplay:10.37 W/m2 BKN
12:20 81.2 °F 69.6 °F 30.12 in WSW 1.0 mph 2.0 mph 68% 0.00 in WeatherDisplay:10.37 W/m2 BKN
12:25 81.8 °F 70.2 °F 30.12 in North 1.0 mph 1.0 mph 68% 0.00 in WeatherDisplay:10.37 W/m2 BKN
12:30 82.1 °F 69.6 °F 30.12 in Calm   1.0 mph 66% 0.00 in WeatherDisplay:10.37 W/m2 BKN
12:35 82.5 °F 70.0 °F 30.12 in Calm   1.0 mph 66% 0.00 in WeatherDisplay:10.37 W/m2 BKN
12:40 82.9 °F 70.4 °F 30.12 in Calm   1.0 mph 66% 0.00 in WeatherDisplay:10.37 W/m2 BKN
12:45 82.7 °F 69.7 °F 30.11 in Calm   1.0 mph 65% 0.00 in WeatherDisplay:10.37 W/m2 BKN
12:50 82.5 °F 69.5 °F 30.11 in Calm   1.0 mph 65% 0.00 in WeatherDisplay:10.37 W/m2 BKN
12:55 82.5 °F 69.1 °F 30.11 in Calm   1.0 mph 64% 0.00 in WeatherDisplay:10.37 W/m2 BKN
13:00 82.5 °F 70.0 °F 30.11 in Calm   1.0 mph 66% 0.00 in WeatherDisplay:10.37 W/m2 BKN
13:10 82.4 °F 70.3 °F 30.11 in Calm   1.0 mph 67% 0.00 in WeatherDisplay:10.37 W/m2 BKN
13:15 82.7 °F 69.7 °F 30.11 in Calm   1.0 mph 65% 0.00 in WeatherDisplay:10.37 W/m2 BKN
13:20 82.7 °F 70.2 °F 30.11 in Calm   1.0 mph 66% 0.00 in WeatherDisplay:10.37 W/m2 OVC
13:25 83.0 °F 70.4 °F 30.10 in Calm   1.0 mph 66% 0.00 in WeatherDisplay:10.37 W/m2 OVC
13:30 82.9 °F 70.4 °F 30.10 in Calm   2.0 mph 66% 0.00 in WeatherDisplay:10.37 W/m2 OVC
13:35 83.3 °F 69.9 °F 30.10 in Calm     64% 0.00 in WeatherDisplay:10.37 W/m2 OVC
13:40 83.7 °F 70.7 °F 30.10 in Calm   1.0 mph 65% 0.00 in WeatherDisplay:10.37 W/m2 OVC
13:45 84.1 °F 70.6 °F 30.10 in Calm   1.0 mph 64% 0.00 in WeatherDisplay:10.37 W/m2 OVC
13:50 84.7 °F 70.7 °F 30.10 in Calm   1.0 mph 63% 0.00 in WeatherDisplay:10.37 W/m2 OVC
13:55 85.4 °F 70.9 °F 30.09 in Calm   1.0 mph 62% 0.00 in WeatherDisplay:10.37 W/m2 OVC
14:00 85.6 °F 70.6 °F 30.09 in Calm   1.0 mph 61% 0.00 in WeatherDisplay:10.37 W/m2 OVC
14:10 84.7 °F 69.8 °F 30.09 in Calm   1.0 mph 61% 0.00 in WeatherDisplay:10.37 W/m2 OVC
14:15 84.5 °F 70.6 °F 30.09 in Calm   1.0 mph 63% 0.00 in WeatherDisplay:10.37 W/m2 OVC
14:20 84.8 °F 69.4 °F 30.09 in Calm   2.0 mph 60% 0.00 in WeatherDisplay:10.37 W/m2 BKN
14:25 85.0 °F 70.5 °F 30.09 in WSW 1.0 mph 2.0 mph 62% 0.00 in WeatherDisplay:10.37 W/m2 BKN
14:30 85.0 °F 69.6 °F 30.08 in West 1.0 mph 2.0 mph 60% 0.00 in WeatherDisplay:10.37 W/m2 BKN
14:35 84.6 °F 69.2 °F 30.08 in Calm   2.0 mph 60% 0.00 in WeatherDisplay:10.37 W/m2 BKN
14:40 84.4 °F 69.0 °F 30.08 in Calm   1.0 mph 60% 0.00 in WeatherDisplay:10.37 W/m2 BKN
14:45 84.6 °F 69.7 °F 30.08 in WNW 1.0 mph 2.0 mph 61% 0.00 in WeatherDisplay:10.37 W/m2 BKN
14:50 84.5 °F 70.5 °F 30.08 in Calm     63% 0.00 in WeatherDisplay:10.37 W/m2 BKN
14:55 84.2 °F 69.7 °F 30.08 in Calm   1.0 mph 62% 0.00 in WeatherDisplay:10.37 W/m2 BKN
15:00 83.7 °F 69.3 °F 30.08 in Calm   3.0 mph 62% 0.00 in WeatherDisplay:10.37 W/m2 BKN
15:10 83.7 °F 70.7 °F 30.08 in Calm   1.0 mph 65% 0.00 in WeatherDisplay:10.37 W/m2 BKN
15:15 83.6 °F 70.1 °F 30.08 in Calm     64% 0.00 in WeatherDisplay:10.37 W/m2 BKN
15:20 83.3 °F 69.8 °F 30.08 in Calm   1.0 mph 64% 0.00 in WeatherDisplay:10.37 W/m2 BKN
15:25 83.2 °F 70.2 °F 30.07 in Calm     65% 0.00 in WeatherDisplay:10.37 W/m2 BKN
15:30 83.0 °F 69.1 °F 30.07 in Calm   1.0 mph 63% 0.00 in WeatherDisplay:10.37 W/m2 BKN
15:35 83.1 °F 69.7 °F 30.07 in Calm   1.0 mph 64% 0.00 in WeatherDisplay:10.37 W/m2 BKN
15:40 83.2 °F 69.3 °F 30.07 in Calm     63% 0.00 in WeatherDisplay:10.37 W/m2 BKN
15:45 83.3 °F 68.4 °F 30.07 in Calm   1.0 mph 61% 0.00 in WeatherDisplay:10.37 W/m2 BKN
15:50 83.4 °F 69.5 °F 30.07 in Calm   1.0 mph 63% 0.00 in WeatherDisplay:10.37 W/m2 BKN
15:55 83.4 °F 69.9 °F 30.07 in Calm     64% 0.00 in WeatherDisplay:10.37 W/m2 BKN
16:00 83.6 °F 70.1 °F 30.07 in Calm   1.0 mph 64% 0.00 in WeatherDisplay:10.37 W/m2 BKN
16:10 83.5 °F 69.6 °F 30.06 in Calm   1.0 mph 63% 0.00 in WeatherDisplay:10.37 W/m2 BKN
16:15 83.3 °F 68.0 °F 30.06 in Calm   1.0 mph 60% 0.00 in WeatherDisplay:10.37 W/m2 BKN
16:20 83.3 °F 69.4 °F 30.06 in Calm     63% 0.00 in WeatherDisplay:10.37 W/m2 BKN
16:25 83.3 °F 68.9 °F 30.06 in Calm     62% 0.00 in WeatherDisplay:10.37 W/m2 BKN
16:30 83.3 °F 68.4 °F 30.06 in Calm     61% 0.00 in WeatherDisplay:10.37 W/m2 BKN
16:40 83.3 °F 68.9 °F 30.06 in Calm     62% 0.00 in WeatherDisplay:10.37 W/m2 BKN
16:45 83.2 °F 69.8 °F 30.06 in Calm     64% 0.00 in WeatherDisplay:10.37 W/m2 BKN
16:50 83.2 °F 68.8 °F 30.06 in Calm     62% 0.00 in WeatherDisplay:10.37 W/m2 BKN
16:55 83.2 °F 69.8 °F 30.06 in Calm     64% 0.00 in WeatherDisplay:10.37 W/m2 BKN
17:00 83.0 °F 69.1 °F 30.05 in Calm     63% 0.00 in WeatherDisplay:10.37 W/m2 BKN
17:05 83.0 °F 69.6 °F 30.05 in Calm     64% 0.00 in WeatherDisplay:10.37 W/m2 BKN
17:15 82.8 °F 69.4 °F 30.06 in Calm     64% 0.00 in WeatherDisplay:10.37 W/m2 BKN
17:20 82.8 °F 68.9 °F 30.06 in Calm     63% 0.00 in WeatherDisplay:10.37 W/m2 OVC
17:25 82.8 °F 69.8 °F 30.05 in Calm     65% 0.00 in WeatherDisplay:10.37 W/m2 OVC
17:30 82.9 °F 68.1 °F 30.05 in Calm     61% 0.00 in WeatherDisplay:10.37 W/m2 OVC
17:35 83.1 °F 69.2 °F 30.05 in Calm     63% 0.00 in WeatherDisplay:10.37 W/m2 OVC
17:40 83.2 °F 68.3 °F 30.06 in Calm     61% 0.00 in WeatherDisplay:10.37 W/m2 OVC
17:45 83.1 °F 68.3 °F 30.05 in Calm     61% 0.00 in WeatherDisplay:10.37 W/m2 OVC
17:50 83.1 °F 68.7 °F 30.05 in Calm     62% 0.00 in WeatherDisplay:10.37 W/m2 OVC
17:55 82.9 °F 69.5 °F 30.06 in Calm   1.0 mph 64% 0.00 in WeatherDisplay:10.37 W/m2 OVC
18:00 82.9 °F 69.0 °F 30.06 in Calm   1.0 mph 63% 0.00 in WeatherDisplay:10.37 W/m2 OVC
18:10 82.8 °F 69.8 °F 30.05 in Calm     65% 0.00 in WeatherDisplay:10.37 W/m2 OVC
18:15 82.7 °F 69.3 °F 30.06 in Calm   1.0 mph 64% 0.00 in WeatherDisplay:10.37 W/m2 OVC
18:20 82.5 °F 69.5 °F 30.06 in Calm     65% 0.00 in WeatherDisplay:10.37 W/m2 BKN
18:25 82.4 °F 69.0 °F 30.06 in Calm   1.0 mph 64% 0.00 in WeatherDisplay:10.37 W/m2 BKN
18:30 82.2 °F 69.3 °F 30.06 in Calm     65% 0.00 in WeatherDisplay:10.37 W/m2 BKN
18:40 81.9 °F 69.4 °F 30.06 in Calm     66% 0.00 in WeatherDisplay:10.37 W/m2 BKN
18:45 81.7 °F 68.8 °F 30.06 in Calm   1.0 mph 65% 0.00 in WeatherDisplay:10.37 W/m2 BKN
18:50 81.6 °F 69.1 °F 30.06 in Calm   1.0 mph 66% 0.00 in WeatherDisplay:10.37 W/m2 BKN
18:55 81.4 °F 69.4 °F 30.06 in Calm     67% 0.00 in WeatherDisplay:10.37 W/m2 BKN
19:00 81.0 °F 69.4 °F 30.06 in Calm     68% 0.00 in WeatherDisplay:10.37 W/m2 BKN
19:05 80.5 °F 69.4 °F 30.06 in Calm     69% 0.00 in WeatherDisplay:10.37 W/m2 BKN
19:10 80.2 °F 69.1 °F 30.06 in Calm     69% 0.00 in WeatherDisplay:10.37 W/m2 BKN
19:15 79.9 °F 69.3 °F 30.06 in Calm     70% 0.00 in WeatherDisplay:10.37 W/m2 BKN
19:20 79.6 °F 69.0 °F 30.06 in Calm     70% 0.00 in WeatherDisplay:10.37 W/m2 BKN
19:25 79.4 °F 68.8 °F 30.06 in Calm     70% 0.00 in WeatherDisplay:10.37 W/m2 BKN
19:30 79.4 °F 69.2 °F 30.06 in Calm     71% 0.00 in WeatherDisplay:10.37 W/m2 BKN
19:35 79.1 °F 68.9 °F 30.06 in Calm     71% 0.00 in WeatherDisplay:10.37 W/m2 BKN
19:40 78.8 °F 68.6 °F 30.07 in Calm     71% 0.00 in WeatherDisplay:10.37 W/m2 BKN
19:45 78.7 °F 68.5 °F 30.07 in Calm     71% 0.00 in WeatherDisplay:10.37 W/m2 BKN
19:50 78.7 °F 68.9 °F 30.06 in Calm     72% 0.00 in WeatherDisplay:10.37 W/m2 BKN
19:55 78.6 °F 68.8 °F 30.06 in Calm     72% 0.00 in WeatherDisplay:10.37 W/m2 BKN
20:00 78.5 °F 68.7 °F 30.06 in Calm     72% 0.00 in WeatherDisplay:10.37 W/m2 BKN
20:10 78.2 °F 68.8 °F 30.07 in Calm     73% 0.00 in WeatherDisplay:10.37 W/m2 BKN
20:15 78.1 °F 68.7 °F 30.07 in Calm     73% 0.00 in WeatherDisplay:10.37 W/m2 BKN
20:20 78.0 °F 68.6 °F 30.07 in Calm     73% 0.00 in WeatherDisplay:10.37 W/m2 BKN
20:25 77.9 °F 69.0 °F 30.08 in Calm     74% 0.00 in WeatherDisplay:10.37 W/m2 BKN
20:30 77.9 °F 68.9 °F 30.08 in Calm     74% 0.00 in WeatherDisplay:10.37 W/m2 BKN
20:40 77.6 °F 69.0 °F 30.08 in Calm     75% 0.00 in WeatherDisplay:10.37 W/m2 BKN
20:45 77.5 °F 69.3 °F 30.07 in Calm     76% 0.00 in WeatherDisplay:10.37 W/m2 BKN
20:50 77.3 °F 69.5 °F 30.07 in Calm     77% 0.00 in WeatherDisplay:10.37 W/m2 BKN
20:55 77.2 °F 69.4 °F 30.07 in Calm     77% 0.00 in WeatherDisplay:10.37 W/m2 BKN
21:00 77.1 °F 69.3 °F 30.07 in Calm     77% 0.00 in WeatherDisplay:10.37 W/m2 BKN
21:05 77.0 °F 69.6 °F 30.07 in Calm     78% 0.00 in WeatherDisplay:10.37 W/m2 BKN
21:10 76.9 °F 69.5 °F 30.08 in Calm     78% 0.00 in WeatherDisplay:10.37 W/m2 BKN
21:15 76.8 °F 69.4 °F 30.08 in Calm     78% 0.00 in WeatherDisplay:10.37 W/m2 BKN
21:20 76.7 °F 69.7 °F 30.07 in Calm     79% 0.00 in WeatherDisplay:10.37 W/m2 BKN
21:25 76.6 °F 69.6 °F 30.08 in Calm     79% 0.00 in WeatherDisplay:10.37 W/m2 BKN
21:30 76.4 °F 69.4 °F 30.08 in Calm     79% 0.00 in WeatherDisplay:10.37 W/m2 BKN
21:40 76.2 °F 69.6 °F 30.08 in Calm     80% 0.00 in WeatherDisplay:10.37 W/m2 BKN
21:45 76.1 °F 69.5 °F 30.08 in Calm     80% 0.00 in WeatherDisplay:10.37 W/m2 BKN
21:50 76.0 °F 69.4 °F 30.08 in Calm     80% 0.00 in WeatherDisplay:10.37 W/m2 BKN
21:55 76.0 °F 69.4 °F 30.08 in Calm     80% 0.00 in WeatherDisplay:10.37 W/m2 BKN
22:00 75.9 °F 69.3 °F 30.08 in Calm     80% 0.00 in WeatherDisplay:10.37 W/m2 BKN
22:05 75.9 °F 69.6 °F 30.08 in Calm     81% 0.00 in WeatherDisplay:10.37 W/m2 BKN
22:10 75.7 °F 69.5 °F 30.08 in Calm     81% 0.00 in WeatherDisplay:10.37 W/m2 BKN
22:15 75.6 °F 69.4 °F 30.09 in Calm     81% 0.00 in WeatherDisplay:10.37 W/m2 BKN
22:20 75.5 °F 69.3 °F 30.09 in Calm     81% 0.00 in WeatherDisplay:10.37 W/m2 BKN
22:25 75.4 °F 69.2 °F 30.09 in Calm     81% 0.00 in WeatherDisplay:10.37 W/m2 BKN
22:30 75.3 °F 69.1 °F 30.09 in Calm     81% 0.00 in WeatherDisplay:10.37 W/m2 BKN
22:35 75.2 °F 69.0 °F 30.09 in Calm     81% 0.00 in WeatherDisplay:10.37 W/m2 BKN
22:40 75.1 °F 69.2 °F 30.09 in Calm     82% 0.00 in WeatherDisplay:10.37 W/m2 BKN
22:45 74.9 °F 69.0 °F 30.09 in Calm     82% 0.00 in WeatherDisplay:10.37 W/m2 BKN
22:50 74.7 °F 68.8 °F 30.09 in Calm     82% 0.00 in WeatherDisplay:10.37 W/m2 BKN
22:55 74.6 °F 68.7 °F 30.09 in Calm     82% 0.00 in WeatherDisplay:10.37 W/m2 BKN
23:00 74.5 °F 69.0 °F 30.09 in Calm     83% 0.00 in WeatherDisplay:10.37 W/m2 BKN
23:05 74.4 °F 68.9 °F 30.10 in Calm     83% 0.00 in WeatherDisplay:10.37 W/m2 BKN
23:10 74.3 °F 68.8 °F 30.10 in Calm     83% 0.00 in WeatherDisplay:10.37 W/m2 BKN
23:20 73.9 °F 68.4 °F 30.09 in Calm     83% 0.00 in WeatherDisplay:10.37 W/m2 BKN
23:25 73.8 °F 68.3 °F 30.10 in Calm     83% 0.00 in WeatherDisplay:10.37 W/m2 BKN
23:30 73.6 °F 68.5 °F 30.10 in Calm     84% 0.00 in WeatherDisplay:10.37 W/m2 BKN
23:35 73.5 °F 68.4 °F 30.10 in Calm     84% 0.00 in WeatherDisplay:10.37 W/m2 BKN
23:40 73.3 °F 68.2 °F 30.10 in Calm     84% 0.00 in WeatherDisplay:10.37 W/m2 BKN
23:45 73.2 °F 68.1 °F 30.10 in Calm     84% 0.00 in WeatherDisplay:10.37 W/m2 BKN
23:50 73.1 °F 68.0 °F 30.10 in Calm     84% 0.00 in WeatherDisplay:10.37 W/m2 BKN
23:55 73.1 °F 68.0 °F 30.10 in Calm     84% 0.00 in WeatherDisplay:10.37 W/m2 BKN
Piedmont Bend
Compliments of Weather Underground - 4 mb